SCP
1 1 1 1 1 1 1 1 1 1 1 1 1 1 0 0 0 0 0 0 0 0 0 0 0 0 0 0 0 0 0 0 0 0 0 0 0 0 0 0 0 0 0
1 1 1 1 1 1 1 1 1 1 1 1 1 0 0 0 0 0 0 0 0 0 0 0 0 0 0 0 0 0 0 0 0 0 0 0 0 0 0 0 0 0 0
1 1 1 1 1 1 1 1 1 1 1 1 1 0 0 0 0 0 0 0 0 0 0 0 0 0 0 0 0 0 0 0 0 0 0 0 0 0 0 0 0 0 0
1 1 1 1 2 1 1 1 1 1 1 1 1 0 0 0 0 0 0 0 0 0 0 0 0 0 0 0 0 0 0 0 0 0 0 0 0 0 0 0 0 0 0
1 1 1 2 2 1 1 1 1 1 1 0 0 0 0 0 0 0 0 0 0 0 0 0 0 0 0 0 0 0 0 0 0 0 0 0 0 0 0 0 0 0 0
2 2 2 2 2 1 1 1 1 1 0 0 0 0 0 0 0 0 0 0 0 0 0 0 0 0 0 0 0 0 0 0 0 0 0 0 0 0 0 0 0 0 0
3 2 2 2 2 1 1 1 1 1 1 0 0 0 0 0 0 0 0 0 0 0 0 0 0 0 0 0 0 0 0 0 0 0 0 0 0 0 0 0 0 0 0
3 3 3 2 2 2 1 1 1 1 1 1 1 0 0 1 1 1 0 0 0 0 0 0 0 0 0 0 0 0 0 0 0 0 0 0 0 0 0 0 0 0 0
4 4 3 2 2 1 1 1 1 1 1 1 1 1 1 1 1 1 1 1 1 1 1 1 0 0 0 0 0 0 0 0 0 0 0 0 0 1 1 0 0 0 0
3 4 3 2 1 1 1 1 1 1 1 1 1 1 1 1 1 1 1 1 1 1 1 1 1 0 0 0 0 0 0 0 0 0 0 0 0 1 1 1 1 1 0
2 2 2 2 1 1 1 1 1 1 1 1 1 1 1 1 1 1 1 1 1 1 1 1 1 1 1 0 0 0 0 0 0 0 0 0 1 1 1 1 1 1 1
1 1 1 1 1 1 1 1 1 1 1 1 1 1 1 1 1 1 1 1 1 1 1 1 1 1 1 1 1 0 0 0 0 0 0 1 1 1 1 1 1 1 1
2 1 1 1 1 1 1 1 1 1 1 1 1 1 1 1 1 1 1 1 1 1 1 1 1 1 1 1 1 1 1 1 0 0 1 1 1 1 1 1 1 1 1
2 2 1 1 1 1 1 1 1 1 1 1 1 1 1 1 1 1 1 1 1 1 1 1 1 1 1 1 1 1 1 1 1 1 1 1 1 2 1 1 1 1 1
2 2 1 1 1 1 1 1 1 1 1 1 1 1 1 1 1 1 1 1 1 1 1 1 1 1 1 1 1 1 1 1 1 1 1 1 2 2 2 1 1 1 1
3 2 2 2 2 2 2 1 1 1 1 1 1 1 1 1 1 1 1 1 1 1 1 1 1 1 0 0 0 1 1 1 1 1 1 1 1 1 2 2 1 1 1
3 3 2 2 2 2 2 1 1 1 1 1 1 1 1 1 1 1 1 1 1 1 1 1 1 0 0 0 0 0 0 1 1 1 1 1 1 1 1 2 2 1 1
3 3 2 2 2 2 1 1 1 1 1 1 1 1 1 1 0 0 0 0 0 0 0 0 0 0 0 0 0 0 0 0 1 1 1 1 1 1 1 1 1 1 1
2 2 2 2 2 1 1 1 1 1 1 1 0 0 0 0 0 0 0 0 0 0 0 0 0 0 0 0 0 0 0 0 0 0 1 1 1 1 1 1 1 1 1
2 2 2 2 1 1 1 1 1 0 0 0 0 0 0 0 0 0 0 0 0 0 0 0 0 0 0 0 0 0 0 0 0 0 0 1 1 1 1 1 1 1 2
2 2 2 2 1 1 1 0 0 0 0 0 0 0 0 0 0 0 0 0 0 0 0 0 0 0 0 0 0 0 0 0 0 0 0 0 0 1 1 1 1 2 2
2 2 2 1 1 1 1 0 0 0 0 0 0 0 0 0 0 0 0 0 0 0 0 0 0 0 0 0 0 0 0 0 0 0 0 0 0 1 1 1 1 2 2
1 1 1 1 1 1 1 0 0 0 0 0 0 0 0 0 0 0 0 0 0 0 0 0 0 0 0 0 0 0 0 0 0 0 0 0 0 0 0 1 1 2 2
1 1 1 1 1 1 1 1 0 0 0 0 0 0 0 0 0 0 0 0 0 0 0 0 0 0 0 0 0 0 0 0 0 0 0 0 0 0 0 0 1 1 1
1 1 1 1 1 1 1 1 0 0 0 0 0 0 0 0 0 0 0 0 0 0 0 0 0 0 0 0 0 0 0 0 0 0 0 0 0 0 0 0 0 0 0
1 1 1 1 1 1 0 0 0 0 0 0 0 0 0 0 0 0 0 0 0 0 0 0 0 0 0 0 0 0 0 0 0 0 0 0 0 0 0 0 0 0 0
Wind_Speed
10 11 17 19 19 19 19 19 18 18 18 18 18 18 18 18 17 16 16 15 14 13 13 12 12 12 12 12 12 13 13 13 13 14 15 15 14 15 15 16 15 11 16
14 13 18 19 19 18 18 18 18 18 18 18 17 17 17 16 16 15 15 14 13 13 13 12 12 12 12 12 12 12 12 12 12 14 15 13 14 14 15 15 14 10 16
16 13 16 18 18 18 18 18 18 18 17 17 17 16 16 15 15 14 14 14 13 12 12 12 11 11 11 11 11 11 10 10 11 13 12 6 8 13 15 16 16 15 15
16 11 14 19 19 19 18 18 17 17 17 17 16 16 15 14 14 13 13 13 12 12 11 11 11 10 10 10 9 9 9 9 9 11 5 4 6 13 15 15 15 15 15
13 10 14 20 19 19 18 17 17 17 17 16 16 15 15 14 13 12 12 12 12 12 11 10 10 9 9 8 8 8 7 6 7 6 4 4 5 12 15 14 14 14 14
12 10 14 19 19 18 18 17 17 17 17 16 15 15 14 13 13 12 11 11 11 11 10 10 9 8 7 7 7 6 5 4 5 5 5 5 5 12 14 14 14 14 14
12 9 12 18 19 18 17 17 16 16 16 16 15 14 13 13 12 12 11 10 10 10 9 9 8 7 6 6 5 4 3 3 3 4 5 5 6 12 14 14 14 13 13
13 11 12 17 18 18 17 17 16 16 16 15 15 14 13 12 11 11 10 10 10 9 9 8 7 7 6 4 3 2 1 1 4 5 5 5 10 12 14 14 13 13 13
12 10 8 10 12 16 17 16 16 16 15 14 13 13 12 12 11 10 9 9 10 9 9 8 8 6 5 4 2 1 1 1 2 3 6 5 11 14 15 14 14 13 13
9 8 8 7 7 7 10 15 16 15 14 13 13 12 11 11 10 10 8 8 9 9 8 8 7 7 5 4 4 3 3 1 1 2 3 6 13 15 15 15 14 14 14
9 6 6 7 6 6 6 11 12 13 13 11 10 11 8 4 4 5 8 9 9 8 8 7 7 7 6 5 5 5 3 0 1 2 3 9 15 16 16 15 15 14 14
11 9 7 7 7 6 6 6 4 5 5 4 3 4 3 3 3 5 6 10 9 9 8 8 7 6 5 2 4 5 1 2 1 2 4 11 14 16 16 16 15 15 15
12 11 9 8 7 6 4 4 2 2 3 3 4 4 3 2 1 2 2 3 4 5 3 3 4 2 2 2 2 2 3 2 1 2 4 11 13 14 15 16 16 16 16
9 9 8 8 6 5 5 4 3 3 3 2 3 4 3 2 2 1 1 1 1 1 2 2 2 3 2 2 3 3 3 2 2 2 3 10 14 15 15 15 16 17 16
8 8 8 8 7 5 5 4 4 3 3 3 3 3 4 3 2 2 2 1 2 2 2 2 2 2 2 2 2 3 3 3 2 2 2 10 14 15 17 18 18 18 18
9 7 7 8 7 6 4 4 4 4 3 3 3 4 4 3 3 2 2 1 1 1 2 2 2 2 1 1 2 2 2 2 3 3 4 7 14 16 17 18 19 19 19
9 7 7 8 7 7 6 5 4 4 4 3 3 3 4 3 3 2 2 1 1 1 1 1 1 1 1 1 2 3 3 3 3 4 5 5 6 13 17 17 18 18 18
8 7 6 7 7 6 5 4 3 3 4 3 3 3 4 4 4 3 1 0 0 1 1 1 1 1 0 1 2 3 2 2 4 4 4 5 5 6 11 17 17 17 19
7 7 5 6 6 5 5 4 3 3 3 3 3 3 3 3 4 3 1 1 1 1 1 1 1 1 1 1 2 2 2 3 3 4 5 6 7 6 5 10 16 17 19
5 6 6 5 5 5 4 3 3 3 2 2 2 3 4 3 3 3 2 1 1 1 1 0 0 0 1 1 2 3 3 3 3 3 4 4 5 7 7 7 7 11 18
5 5 5 5 4 4 3 3 2 2 1 1 1 3 3 2 3 3 2 1 1 1 0 0 1 0 1 1 1 3 4 3 2 2 2 2 3 5 5 6 5 5 6
6 5 5 5 5 4 3 2 2 2 1 1 1 1 2 2 3 3 3 2 1 1 1 1 1 1 1 1 1 1 3 5 4 2 1 1 2 2 3 6 6 6 6
7 8 7 6 5 4 4 2 3 3 3 2 2 1 0 1 2 2 3 2 2 2 1 1 1 2 0 1 1 2 1 2 4 4 3 2 2 1 3 3 4 5 6
8 7 7 6 6 5 5 4 4 3 2 1 1 0 1 1 1 2 2 2 2 2 2 1 2 1 2 0 1 0 2 3 1 3 4 3 3 3 3 3 2 4 4
8 7 6 6 6 5 5 6 6 4 2 1 1 2 2 2 2 1 2 2 2 2 1 1 1 1 1 2 1 1 0 0 1 2 3 4 4 3 3 3 2 3 3
7 7 7 7 5 5 6 6 6 5 4 3 2 2 1 1 2 2 2 2 2 1 1 1 0 0 0 1 1 1 1 1 1 1 2 3 4 4 3 3 2 2 3
Wind_Direction
151 154 146 138 133 128 124 120 117 115 113 111 110 109 109 109 110 110 110 109 108 107 106 104 103 101 100 101 102 106 108 111 114 116 116 117 119 119 118 116 113 111 113
147 151 146 140 137 133 129 126 123 121 119 118 117 116 115 115 115 115 115 112 110 109 107 105 103 102 102 103 105 108 110 113 114 114 113 115 120 121 119 118 116 119 118
140 144 143 141 139 136 133 130 129 127 126 125 124 123 122 122 121 120 119 117 114 111 109 108 107 105 105 106 107 109 110 113 116 114 109 103 115 122 121 121 121 120 120
136 139 142 141 139 138 137 135 134 133 133 132 131 129 128 127 126 125 123 121 119 116 113 111 110 108 107 108 108 107 109 112 117 121 114 110 114 122 123 124 124 124 122
131 134 142 140 140 140 139 138 138 137 137 137 136 135 134 133 132 129 127 126 124 122 120 118 115 113 112 109 107 104 106 112 121 121 124 112 112 127 127 127 128 127 126
128 130 139 139 140 141 141 141 140 140 141 141 141 140 140 139 138 136 135 132 130 129 127 126 124 121 118 112 108 107 106 109 110 113 127 129 128 136 135 134 133 132 130
127 127 135 137 140 142 143 143 143 143 144 144 144 144 145 145 144 143 143 143 140 139 138 136 135 133 129 123 115 110 104 93 104 130 141 143 145 143 142 141 139 138 136
131 130 135 139 142 144 145 145 145 145 147 147 148 150 150 150 149 148 148 147 148 146 147 147 147 148 145 139 132 119 95 46 102 141 150 155 156 150 147 146 146 145 144
132 133 135 141 144 146 147 147 147 148 149 150 152 153 153 153 152 153 152 154 156 156 158 160 161 164 167 171 179 191 270 351 88 142 163 163 162 158 155 154 154 153 153
131 137 138 139 142 143 146 150 150 151 152 153 155 156 158 159 160 162 162 167 166 168 170 173 175 178 187 203 222 239 258 323 90 157 165 179 172 166 164 163 162 162 162
143 151 148 146 146 143 148 156 153 153 156 157 160 161 159 160 166 173 177 180 179 179 181 186 192 196 200 217 236 248 259 220 163 177 180 191 180 175 172 172 171 170 170
161 168 164 159 157 157 161 147 149 151 150 151 156 155 149 157 186 182 188 187 188 191 191 197 205 209 207 214 245 255 240 228 212 202 203 196 188 183 180 179 179 179 178
167 167 164 165 165 165 150 148 150 140 144 154 162 156 149 156 179 171 172 194 197 197 189 203 215 216 206 205 224 234 231 223 217 223 214 199 192 190 188 188 186 186 186
156 160 156 158 155 156 145 149 149 151 157 163 170 163 153 147 135 135 158 167 168 176 179 185 209 219 218 220 223 234 230 212 212 223 209 198 197 194 196 197 196 194 193
145 148 149 138 136 135 135 143 140 145 149 159 153 153 148 140 141 149 156 159 175 183 176 180 204 216 212 215 232 237 239 223 208 224 218 205 204 203 201 202 204 202 199
138 143 140 129 129 124 124 127 136 139 141 142 141 144 135 131 136 140 141 156 177 183 177 176 190 200 202 211 257 260 258 234 212 208 216 215 213 211 213 209 208 207 204
139 134 133 128 124 125 131 129 130 136 136 130 131 135 130 134 139 135 135 138 201 189 158 148 182 146 187 231 260 260 248 247 223 208 208 214 222 223 223 218 214 211 210
134 133 139 135 127 127 127 122 123 128 128 130 134 135 138 141 138 130 131 175 237 121 119 130 133 122 223 249 261 263 253 243 241 224 211 213 218 224 227 223 220 218 215
137 137 131 128 131 127 119 113 112 115 131 142 144 141 141 139 136 133 142 174 122 110 121 149 131 155 229 280 272 264 262 251 248 241 222 219 216 218 218 227 226 225 223
129 126 127 122 123 115 104 95 87 98 123 135 147 158 151 145 139 135 142 130 94 88 74 85 135 198 209 264 297 309 288 269 260 248 237 230 222 221 220 225 226 230 228
131 128 127 129 131 127 115 116 119 129 148 151 168 164 154 149 138 134 121 99 96 103 125 161 134 40 319 0 23 333 319 305 289 267 250 232 234 232 225 224 222 221 229
149 149 146 149 147 141 137 146 146 137 139 142 123 117 142 144 145 144 140 136 124 108 70 58 97 97 335 61 114 42 342 336 330 312 300 236 253 251 240 234 226 221 224
169 172 164 161 150 145 135 109 83 67 55 44 38 28 3 140 149 144 154 150 144 130 124 102 117 128 162 331 123 137 137 270 308 317 330 337 330 296 270 258 234 228 223
179 170 158 154 147 142 130 115 114 115 115 145 164 60 10 35 82 142 147 142 137 127 125 124 115 128 137 276 323 173 184 186 217 308 319 327 333 317 296 286 265 241 227
172 164 159 149 145 141 129 125 116 114 128 123 80 65 36 11 18 72 114 112 113 114 116 93 74 86 149 178 211 253 293 246 176 194 294 316 326 311 304 289 285 269 248
168 161 157 149 148 142 131 128 130 131 128 106 84 75 39 17 18 44 96 101 107 111 114 106 75 18 212 205 203 195 186 204 232 205 253 290 299 296 299 293 286 281 270